Terminal Aerodrome Forecast
Issued by NWS

Home | Current Version | Previous Version | Text Only | Print | Product List | Glossary On
Versions: 1 2 3 4 5 6 7 8 9 10 11 12 13 14 15 16 17
000
FTUS46 KOTX 230537
TAFPUW
TAF
KPUW 230537Z 2306/2406 23011KT P6SM SCT200
     FM231100 24012KT P6SM VCSH BKN060 BKN100
     FM231300 23014KT P6SM -SHSN BKN025 OVC040
     FM231600 24017G25KT P6SM -SHRA SCT030 BKN050
     FM232200 22010KT P6SM VCSH FEW009 SCT040 OVC060
     FM240300 16010KT P6SM -RA SCT020 OVC030=

USA.gov is the U.S. government's official web portal to all federal, state and local government web resources and services.